Total_Precipitation_Accumulation
1.81 1.98 1.94 1.88 1.87 1.85 2.20 2.52 2.66 2.48 2.37 2.29 2.07 1.96 2.04 2.15 2.19 1.90 1.74 1.82 1.70 1.54 1.45 1.41 1.40 1.48 1.61 1.75 1.83 1.91 2.06 2.31 2.54 2.68 2.88 3.28 3.70 4.09
1.93 2.00 1.95 1.93 2.02 1.95 2.09 2.33 2.54 2.73 2.56 2.13 1.96 1.87 1.84 1.67 1.77 1.59 1.58 1.75 1.63 1.48 1.43 1.42 1.42 1.43 1.42 1.45 1.51 1.53 1.56 1.63 1.75 1.87 1.96 2.13 2.38 2.79
2.13 2.12 2.18 2.28 2.25 2.16 2.22 2.30 2.44 2.71 2.67 2.20 2.10 2.11 1.97 1.76 1.69 1.61 1.57 1.64 1.65 1.72 1.57 1.46 1.37 1.29 1.28 1.28 1.31 1.37 1.41 1.48 1.54 1.60 1.69 1.76 1.76 1.86
2.27 2.50 2.44 2.45 2.40 2.24 2.33 2.29 2.35 2.64 2.57 2.34 2.36 2.37 2.31 2.10 1.94 1.77 1.60 1.58 1.66 1.86 1.62 1.46 1.38 1.31 1.28 1.28 1.27 1.26 1.27 1.30 1.35 1.39 1.42 1.46 1.50 1.56
2.31 2.40 2.43 2.58 2.46 2.36 2.29 2.24 2.33 2.50 2.60 2.43 2.40 2.55 2.45 2.22 2.07 1.82 1.63 1.69 1.52 1.64 1.61 1.52 1.48 1.40 1.34 1.28 1.25 1.24 1.21 1.20 1.23 1.29 1.35 1.43 1.45 1.42
2.25 2.18 2.26 2.49 2.54 2.53 2.35 2.30 2.40 2.53 2.59 2.53 2.45 2.55 2.58 2.51 2.35 2.12 2.00 1.84 1.66 1.54 1.61 1.51 1.48 1.41 1.34 1.25 1.21 1.20 1.22 1.21 1.18 1.15 1.14 1.15 1.17 1.19
2.05 1.94 1.92 2.13 2.38 2.46 2.24 2.24 2.36 2.39 2.39 2.43 2.44 2.49 2.54 2.68 2.55 2.28 2.04 1.90 1.68 1.51 1.52 1.40 1.35 1.27 1.30 1.30 1.23 1.15 1.09 1.08 1.05 1.04 1.02 1.01 0.99 0.99
2.05 1.97 1.83 1.81 1.83 1.97 2.08 2.20 2.33 2.29 2.30 2.46 2.62 2.67 2.65 2.66 2.66 2.45 2.18 1.95 1.79 1.59 1.63 1.62 1.53 1.46 1.29 1.18 1.23 1.15 1.07 1.04 1.03 0.98 0.94 0.94 0.95 0.95
1.90 1.90 1.61 1.45 1.56 1.49 1.66 1.82 1.94 2.02 2.05 2.21 2.38 2.49 2.61 2.75 2.79 2.56 2.37 2.18 1.93 1.73 1.70 1.59 1.49 1.46 1.35 1.29 1.37 1.21 1.14 1.10 1.07 1.03 0.97 0.91 0.89 0.91
1.61 1.62 1.57 1.49 1.47 1.53 1.54 1.53 1.51 1.58 1.69 1.71 1.84 2.09 2.34 2.56 2.73 2.64 2.54 2.25 1.95 1.72 1.65 1.53 1.39 1.36 1.29 1.31 1.41 1.30 1.18 1.09 1.00 0.94 0.90 0.85 0.81 0.82
1.57 1.60 1.63 1.56 1.69 1.58 1.51 1.55 1.56 1.57 1.60 1.64 1.66 1.82 2.08 2.26 2.38 2.48 2.44 2.28 2.02 1.78 1.69 1.68 1.50 1.42 1.37 1.23 1.22 1.27 1.15 1.07 1.01 0.93 0.88 0.83 0.82 0.80
1.61 1.62 1.62 1.51 1.53 1.41 1.34 1.48 1.48 1.50 1.56 1.56 1.58 1.59 1.68 1.99 2.31 2.16 2.18 2.21 2.00 1.72 1.48 1.53 1.52 1.53 1.43 1.14 1.01 1.00 0.97 1.01 1.05 1.01 0.97 0.92 0.93 0.84
1.71 1.65 1.63 1.55 1.26 1.20 1.18 1.19 1.24 1.30 1.41 1.40 1.35 1.36 1.46 1.62 1.87 1.94 1.93 1.90 1.85 1.62 1.41 1.40 1.37 1.39 1.32 1.10 0.93 0.87 0.87 0.87 0.86 0.93 0.98 0.99 0.95 0.87
1.66 1.67 1.67 1.53 1.24 1.13 1.03 1.01 1.02 0.99 1.05 1.17 1.21 1.23 1.29 1.41 1.56 1.72 1.82 1.86 1.77 1.62 1.54 1.51 1.38 1.31 1.25 1.11 0.95 0.85 0.85 0.86 0.87 0.85 0.87 1.05 1.05 1.00
1.46 1.63 1.53 1.34 1.17 1.02 0.96 0.92 0.88 0.83 0.94 1.10 1.17 1.17 1.17 1.27 1.52 1.81 1.98 2.06 1.99 1.72 1.58 1.54 1.48 1.39 1.38 1.22 1.03 0.91 0.88 0.87 0.86 0.91 0.91 0.94 1.00 1.01
1.28 1.36 1.36 1.33 1.27 1.15 1.04 0.93 0.84 0.89 0.99 1.08 1.19 1.32 1.43 1.52 1.61 1.71 1.89 1.97 1.99 1.79 1.57 1.52 1.49 1.51 1.42 1.22 1.13 1.02 0.89 0.85 0.85 0.91 0.98 0.98 1.04 1.11
1.26 1.27 1.30 1.39 1.42 1.41 1.37 1.27 1.19 1.17 1.13 1.11 1.26 1.40 1.42 1.43 1.45 1.57 1.76 1.81 1.71 1.57 1.44 1.37 1.43 1.44 1.40 1.31 1.19 1.03 0.93 0.84 0.83 0.92 1.08 1.11 1.05 1.07
1.15 1.26 1.42 1.51 1.58 1.58 1.57 1.46 1.31 1.19 1.12 1.16 1.24 1.33 1.38 1.40 1.44 1.57 1.70 1.72 1.58 1.46 1.44 1.33 1.37 1.52 1.50 1.33 1.13 1.04 0.99 0.90 0.86 0.98 1.06 1.11 1.06 0.98
0.98 1.13 1.31 1.39 1.45 1.46 1.47 1.40 1.34 1.29 1.28 1.30 1.36 1.42 1.47 1.48 1.49 1.53 1.63 1.68 1.57 1.45 1.41 1.42 1.36 1.42 1.42 1.16 0.90 0.84 0.95 0.99 1.04 1.10 1.13 1.11 1.04 0.94
0.84 0.97 1.10 1.22 1.34 1.47 1.53 1.51 1.48 1.45 1.39 1.35 1.42 1.45 1.50 1.54 1.52 1.48 1.53 1.60 1.58 1.51 1.46 1.40 1.34 1.27 1.23 1.17 1.02 0.89 0.90 1.05 1.18 1.21 1.17 1.19 1.14 1.08
0.86 0.90 0.97 1.12 1.30 1.46 1.59 1.66 1.66 1.59 1.47 1.44 1.45 1.46 1.46 1.53 1.52 1.45 1.49 1.62 1.62 1.54 1.37 1.19 1.13 1.28 1.38 1.51 1.36 1.01 0.92 0.96 1.07 1.18 1.24 1.30 1.25 1.22
0.93 0.94 0.99 1.10 1.27 1.44 1.52 1.55 1.60 1.55 1.51 1.47 1.43 1.47 1.50 1.51 1.48 1.44 1.46 1.54 1.50 1.44 1.34 1.28 1.40 1.60 1.68 1.62 1.36 1.13 1.07 1.03 1.06 1.11 1.11 1.13 1.15 1.09
1.03 0.98 0.97 1.03 1.18 1.32 1.40 1.44 1.49 1.47 1.41 1.40 1.39 1.42 1.50 1.55 1.59 1.57 1.53 1.55 1.57 1.59 1.68 1.64 1.61 1.63 1.63 1.59 1.48 1.31 1.19 1.15 1.17 1.19 1.06 0.97 0.91 0.86